Location: *
(47.2969°N, 10.2930°E)
Time: 19:33:33
(UTC+00:00)

STARLINK-1225 - Pass Details

Date: 09 April 2020
Orbit: 549 x 550 km, 53.0° (Epoch: 03 June)

Event Time Altitude Azimuth Distance (km) Brightness Sun altitude
Rises 19:16:29 0° 297° (WNW) 2,668 9.2 -13.0°
Reaches altitude 10° 19:18:43 10° 301° (WNW) 1,776 7.7 -13.3°
Maximum altitude 19:22:42 58° 21° (NNE) 619 3.9 -13.9°
Enters shadow 19:25:03 23° 94° (E) 1,165 4.7 -14.2°
